<?xml version="1.0" encoding="UTF-8" standalone="no" ?>
<gpx xmlns="http://www.topografix.com/GPX/1/1" xmlns:xsi="http://www.w3.org/2001/XMLSchema-instance" xsi:schemaLocation="http://www.topografix.com/GPX/1/1 http://www.topografix.com/GPX/1/1/gpx.xsd" version="1.1" creator="VisuGPX - https://www.visugpx.com">
  <metadata>
    <name>rando santé autour du lac de st andré</name>
    <desc><![CDATA[comment ...]]></desc>
  </metadata>
  <trk>
    <name><![CDATA[12 oct. 2019]]></name>
    <cmt><![CDATA[14:42:40]]></cmt>
    <desc><![CDATA[comment ...]]></desc>
    <trkseg>
      <trkpt lat="44.93925" lon="4.2041">
        <ele>1370</ele>
        <time>2019-10-12T12:42:40Z</time>
      </trkpt>
      <trkpt lat="44.93924" lon="4.2041">
        <ele>1370</ele>
        <time>2019-10-12T12:42:41Z</time>
      </trkpt>
      <trkpt lat="44.93928" lon="4.20416">
        <ele>1365</ele>
        <time>2019-10-12T12:42:58Z</time>
      </trkpt>
      <trkpt lat="44.93944" lon="4.20427">
        <ele>1340</ele>
        <time>2019-10-12T12:45:08Z</time>
      </trkpt>
      <trkpt lat="44.93958" lon="4.20435">
        <ele>1339</ele>
        <time>2019-10-12T12:45:20Z</time>
      </trkpt>
      <trkpt lat="44.93989" lon="4.20443">
        <ele>1335</ele>
        <time>2019-10-12T12:45:50Z</time>
      </trkpt>
      <trkpt lat="44.93995" lon="4.20448">
        <ele>1335</ele>
        <time>2019-10-12T12:45:57Z</time>
      </trkpt>
      <trkpt lat="44.94017" lon="4.20481">
        <ele>1332</ele>
        <time>2019-10-12T12:46:28Z</time>
      </trkpt>
      <trkpt lat="44.94039" lon="4.20525">
        <ele>1329</ele>
        <time>2019-10-12T12:47:06Z</time>
      </trkpt>
      <trkpt lat="44.94054" lon="4.20563">
        <ele>1328</ele>
        <time>2019-10-12T12:47:39Z</time>
      </trkpt>
      <trkpt lat="44.9406" lon="4.20595">
        <ele>1327</ele>
        <time>2019-10-12T12:48:03Z</time>
      </trkpt>
      <trkpt lat="44.94077" lon="4.20632">
        <ele>1327</ele>
        <time>2019-10-12T12:48:34Z</time>
      </trkpt>
      <trkpt lat="44.9409" lon="4.20689">
        <ele>1327</ele>
        <time>2019-10-12T12:49:13Z</time>
      </trkpt>
      <trkpt lat="44.94108" lon="4.2073">
        <ele>1328</ele>
        <time>2019-10-12T12:49:44Z</time>
      </trkpt>
      <trkpt lat="44.94114" lon="4.20745">
        <ele>1328</ele>
        <time>2019-10-12T12:49:55Z</time>
      </trkpt>
      <trkpt lat="44.9414" lon="4.20774">
        <ele>1328</ele>
        <time>2019-10-12T12:50:26Z</time>
      </trkpt>
      <trkpt lat="44.94168" lon="4.20812">
        <ele>1329</ele>
        <time>2019-10-12T12:50:59Z</time>
      </trkpt>
      <trkpt lat="44.94196" lon="4.2085">
        <ele>1330</ele>
        <time>2019-10-12T12:51:33Z</time>
      </trkpt>
      <trkpt lat="44.94201" lon="4.2086">
        <ele>1331</ele>
        <time>2019-10-12T12:51:41Z</time>
      </trkpt>
      <trkpt lat="44.94206" lon="4.20869">
        <ele>1331</ele>
        <time>2019-10-12T12:51:49Z</time>
      </trkpt>
      <trkpt lat="44.94231" lon="4.20896">
        <ele>1334</ele>
        <time>2019-10-12T12:52:19Z</time>
      </trkpt>
      <trkpt lat="44.94237" lon="4.20902">
        <ele>1334</ele>
        <time>2019-10-12T12:52:26Z</time>
      </trkpt>
      <trkpt lat="44.94256" lon="4.20936">
        <ele>1336</ele>
        <time>2019-10-12T12:52:54Z</time>
      </trkpt>
      <trkpt lat="44.94262" lon="4.20943">
        <ele>1337</ele>
        <time>2019-10-12T12:53:02Z</time>
      </trkpt>
      <trkpt lat="44.9429" lon="4.20981">
        <ele>1340</ele>
        <time>2019-10-12T12:53:32Z</time>
      </trkpt>
      <trkpt lat="44.94306" lon="4.20997">
        <ele>1341</ele>
        <time>2019-10-12T12:53:46Z</time>
      </trkpt>
      <trkpt lat="44.94319" lon="4.21009">
        <ele>1342</ele>
        <time>2019-10-12T12:53:58Z</time>
      </trkpt>
      <trkpt lat="44.94352" lon="4.21039">
        <ele>1344</ele>
        <time>2019-10-12T12:54:28Z</time>
      </trkpt>
      <trkpt lat="44.94385" lon="4.21074">
        <ele>1347</ele>
        <time>2019-10-12T12:55:03Z</time>
      </trkpt>
      <trkpt lat="44.94395" lon="4.21079">
        <ele>1355</ele>
        <time>2019-10-12T12:59:16Z</time>
      </trkpt>
      <trkpt lat="44.94436" lon="4.21115">
        <ele>1355</ele>
        <time>2019-10-12T12:59:50Z</time>
      </trkpt>
      <trkpt lat="44.94477" lon="4.21149">
        <ele>1355</ele>
        <time>2019-10-12T13:00:24Z</time>
      </trkpt>
      <trkpt lat="44.94514" lon="4.21191">
        <ele>1355</ele>
        <time>2019-10-12T13:00:55Z</time>
      </trkpt>
      <trkpt lat="44.94529" lon="4.21203">
        <ele>1355</ele>
        <time>2019-10-12T13:01:06Z</time>
      </trkpt>
      <trkpt lat="44.94547" lon="4.2121">
        <ele>1355</ele>
        <time>2019-10-12T13:01:18Z</time>
      </trkpt>
      <trkpt lat="44.94598" lon="4.21212">
        <ele>1356</ele>
        <time>2019-10-12T13:01:51Z</time>
      </trkpt>
      <trkpt lat="44.94646" lon="4.21208">
        <ele>1356</ele>
        <time>2019-10-12T13:02:25Z</time>
      </trkpt>
      <trkpt lat="44.94687" lon="4.21209">
        <ele>1356</ele>
        <time>2019-10-12T13:02:53Z</time>
      </trkpt>
      <trkpt lat="44.94731" lon="4.21228">
        <ele>1357</ele>
        <time>2019-10-12T13:03:29Z</time>
      </trkpt>
      <trkpt lat="44.94773" lon="4.21238">
        <ele>1357</ele>
        <time>2019-10-12T13:04:01Z</time>
      </trkpt>
      <trkpt lat="44.9478" lon="4.2124">
        <ele>1358</ele>
        <time>2019-10-12T13:04:07Z</time>
      </trkpt>
      <trkpt lat="44.94787" lon="4.21238">
        <ele>1358</ele>
        <time>2019-10-12T13:04:13Z</time>
      </trkpt>
      <trkpt lat="44.94799" lon="4.21224">
        <ele>1358</ele>
        <time>2019-10-12T13:04:23Z</time>
      </trkpt>
      <trkpt lat="44.94806" lon="4.2122">
        <ele>1358</ele>
        <time>2019-10-12T13:04:30Z</time>
      </trkpt>
      <trkpt lat="44.94845" lon="4.21257">
        <ele>1358</ele>
        <time>2019-10-12T13:05:03Z</time>
      </trkpt>
      <trkpt lat="44.94873" lon="4.21281">
        <ele>1358</ele>
        <time>2019-10-12T13:05:27Z</time>
      </trkpt>
      <trkpt lat="44.94889" lon="4.2128">
        <ele>1358</ele>
        <time>2019-10-12T13:05:41Z</time>
      </trkpt>
      <trkpt lat="44.9492" lon="4.2127">
        <ele>1359</ele>
        <time>2019-10-12T13:06:12Z</time>
      </trkpt>
      <trkpt lat="44.94929" lon="4.21268">
        <ele>1359</ele>
        <time>2019-10-12T13:06:20Z</time>
      </trkpt>
      <trkpt lat="44.94966" lon="4.21241">
        <ele>1358</ele>
        <time>2019-10-12T13:07:04Z</time>
      </trkpt>
      <trkpt lat="44.94988" lon="4.21234">
        <ele>1357</ele>
        <time>2019-10-12T13:07:26Z</time>
      </trkpt>
      <trkpt lat="44.95017" lon="4.21212">
        <ele>1357</ele>
        <time>2019-10-12T13:08:02Z</time>
      </trkpt>
      <trkpt lat="44.95027" lon="4.21203">
        <ele>1357</ele>
        <time>2019-10-12T13:08:17Z</time>
      </trkpt>
      <trkpt lat="44.95033" lon="4.2119">
        <ele>1357</ele>
        <time>2019-10-12T13:08:27Z</time>
      </trkpt>
      <trkpt lat="44.95045" lon="4.21165">
        <ele>1357</ele>
        <time>2019-10-12T13:08:57Z</time>
      </trkpt>
      <trkpt lat="44.95052" lon="4.21162">
        <ele>1360</ele>
        <time>2019-10-12T13:09:46Z</time>
      </trkpt>
      <trkpt lat="44.95059" lon="4.21161">
        <ele>1374</ele>
        <time>2019-10-12T13:12:24Z</time>
      </trkpt>
      <trkpt lat="44.95078" lon="4.21127">
        <ele>1376</ele>
        <time>2019-10-12T13:12:57Z</time>
      </trkpt>
      <trkpt lat="44.95086" lon="4.21096">
        <ele>1377</ele>
        <time>2019-10-12T13:13:28Z</time>
      </trkpt>
      <trkpt lat="44.95089" lon="4.21081">
        <ele>1377</ele>
        <time>2019-10-12T13:13:39Z</time>
      </trkpt>
      <trkpt lat="44.95097" lon="4.21052">
        <ele>1378</ele>
        <time>2019-10-12T13:14:01Z</time>
      </trkpt>
      <trkpt lat="44.95114" lon="4.21009">
        <ele>1380</ele>
        <time>2019-10-12T13:14:38Z</time>
      </trkpt>
      <trkpt lat="44.95136" lon="4.20974">
        <ele>1382</ele>
        <time>2019-10-12T13:15:16Z</time>
      </trkpt>
      <trkpt lat="44.95156" lon="4.20957">
        <ele>1384</ele>
        <time>2019-10-12T13:15:38Z</time>
      </trkpt>
      <trkpt lat="44.95185" lon="4.20931">
        <ele>1387</ele>
        <time>2019-10-12T13:16:14Z</time>
      </trkpt>
      <trkpt lat="44.95191" lon="4.20922">
        <ele>1400</ele>
        <time>2019-10-12T13:19:21Z</time>
      </trkpt>
      <trkpt lat="44.95198" lon="4.20922">
        <ele>1403</ele>
        <time>2019-10-12T13:23:17Z</time>
      </trkpt>
      <trkpt lat="44.95206" lon="4.20918">
        <ele>1405</ele>
        <time>2019-10-12T13:25:18Z</time>
      </trkpt>
      <trkpt lat="44.95221" lon="4.20905">
        <ele>1405</ele>
        <time>2019-10-12T13:25:43Z</time>
      </trkpt>
      <trkpt lat="44.95232" lon="4.20901">
        <ele>1405</ele>
        <time>2019-10-12T13:25:59Z</time>
      </trkpt>
      <trkpt lat="44.95244" lon="4.209">
        <ele>1406</ele>
        <time>2019-10-12T13:26:20Z</time>
      </trkpt>
      <trkpt lat="44.95254" lon="4.20899">
        <ele>1407</ele>
        <time>2019-10-12T13:26:41Z</time>
      </trkpt>
      <trkpt lat="44.95263" lon="4.20905">
        <ele>1408</ele>
        <time>2019-10-12T13:27:09Z</time>
      </trkpt>
      <trkpt lat="44.95271" lon="4.2091">
        <ele>1410</ele>
        <time>2019-10-12T13:27:50Z</time>
      </trkpt>
      <trkpt lat="44.95286" lon="4.20913">
        <ele>1411</ele>
        <time>2019-10-12T13:28:18Z</time>
      </trkpt>
      <trkpt lat="44.95299" lon="4.20933">
        <ele>1414</ele>
        <time>2019-10-12T13:28:52Z</time>
      </trkpt>
      <trkpt lat="44.95308" lon="4.20942">
        <ele>1415</ele>
        <time>2019-10-12T13:29:10Z</time>
      </trkpt>
      <trkpt lat="44.95312" lon="4.20958">
        <ele>1417</ele>
        <time>2019-10-12T13:29:40Z</time>
      </trkpt>
      <trkpt lat="44.9531" lon="4.20974">
        <ele>1419</ele>
        <time>2019-10-12T13:29:59Z</time>
      </trkpt>
      <trkpt lat="44.9531" lon="4.20987">
        <ele>1426</ele>
        <time>2019-10-12T13:31:32Z</time>
      </trkpt>
      <trkpt lat="44.9531" lon="4.20998">
        <ele>1432</ele>
        <time>2019-10-12T13:33:14Z</time>
      </trkpt>
      <trkpt lat="44.95312" lon="4.21008">
        <ele>1440</ele>
        <time>2019-10-12T13:36:40Z</time>
      </trkpt>
      <trkpt lat="44.95317" lon="4.21012">
        <ele>1447</ele>
        <time>2019-10-12T13:43:49Z</time>
      </trkpt>
      <trkpt lat="44.95318" lon="4.21019">
        <ele>1446</ele>
        <time>2019-10-12T13:46:27Z</time>
      </trkpt>
      <trkpt lat="44.95314" lon="4.21037">
        <ele>1446</ele>
        <time>2019-10-12T13:47:19Z</time>
      </trkpt>
      <trkpt lat="44.95312" lon="4.21045">
        <ele>1446</ele>
        <time>2019-10-12T13:47:24Z</time>
      </trkpt>
      <trkpt lat="44.95311" lon="4.21053">
        <ele>1446</ele>
        <time>2019-10-12T13:47:32Z</time>
      </trkpt>
      <trkpt lat="44.95317" lon="4.21067">
        <ele>1446</ele>
        <time>2019-10-12T13:47:49Z</time>
      </trkpt>
      <trkpt lat="44.95328" lon="4.21075">
        <ele>1446</ele>
        <time>2019-10-12T13:48:16Z</time>
      </trkpt>
      <trkpt lat="44.95344" lon="4.21083">
        <ele>1446</ele>
        <time>2019-10-12T13:48:38Z</time>
      </trkpt>
      <trkpt lat="44.9535" lon="4.21087">
        <ele>1446</ele>
        <time>2019-10-12T13:48:47Z</time>
      </trkpt>
      <trkpt lat="44.95353" lon="4.21093">
        <ele>1447</ele>
        <time>2019-10-12T13:49:03Z</time>
      </trkpt>
      <trkpt lat="44.95357" lon="4.21089">
        <ele>1448</ele>
        <time>2019-10-12T13:50:44Z</time>
      </trkpt>
      <trkpt lat="44.9536" lon="4.21084">
        <ele>1448</ele>
        <time>2019-10-12T13:51:05Z</time>
      </trkpt>
      <trkpt lat="44.95363" lon="4.21076">
        <ele>1447</ele>
        <time>2019-10-12T13:51:58Z</time>
      </trkpt>
      <trkpt lat="44.95368" lon="4.21053">
        <ele>1447</ele>
        <time>2019-10-12T13:52:15Z</time>
      </trkpt>
      <trkpt lat="44.95378" lon="4.21022">
        <ele>1446</ele>
        <time>2019-10-12T13:52:40Z</time>
      </trkpt>
      <trkpt lat="44.95381" lon="4.21018">
        <ele>1446</ele>
        <time>2019-10-12T13:52:46Z</time>
      </trkpt>
      <trkpt lat="44.95395" lon="4.21006">
        <ele>1446</ele>
        <time>2019-10-12T13:53:11Z</time>
      </trkpt>
      <trkpt lat="44.95399" lon="4.21">
        <ele>1446</ele>
        <time>2019-10-12T13:53:17Z</time>
      </trkpt>
      <trkpt lat="44.954" lon="4.20992">
        <ele>1445</ele>
        <time>2019-10-12T13:53:25Z</time>
      </trkpt>
      <trkpt lat="44.95401" lon="4.20984">
        <ele>1445</ele>
        <time>2019-10-12T13:53:37Z</time>
      </trkpt>
      <trkpt lat="44.95404" lon="4.20977">
        <ele>1444</ele>
        <time>2019-10-12T13:53:47Z</time>
      </trkpt>
      <trkpt lat="44.95404" lon="4.2097">
        <ele>1444</ele>
        <time>2019-10-12T13:53:54Z</time>
      </trkpt>
      <trkpt lat="44.95411" lon="4.20964">
        <ele>1441</ele>
        <time>2019-10-12T13:54:41Z</time>
      </trkpt>
      <trkpt lat="44.95429" lon="4.20944">
        <ele>1438</ele>
        <time>2019-10-12T13:55:09Z</time>
      </trkpt>
      <trkpt lat="44.95437" lon="4.20945">
        <ele>1436</ele>
        <time>2019-10-12T13:55:28Z</time>
      </trkpt>
      <trkpt lat="44.95445" lon="4.20942">
        <ele>1435</ele>
        <time>2019-10-12T13:55:40Z</time>
      </trkpt>
      <trkpt lat="44.95453" lon="4.20941">
        <ele>1433</ele>
        <time>2019-10-12T13:55:52Z</time>
      </trkpt>
      <trkpt lat="44.9546" lon="4.20937">
        <ele>1432</ele>
        <time>2019-10-12T13:56:04Z</time>
      </trkpt>
      <trkpt lat="44.95467" lon="4.20933">
        <ele>1429</ele>
        <time>2019-10-12T13:56:25Z</time>
      </trkpt>
      <trkpt lat="44.95474" lon="4.2093">
        <ele>1425</ele>
        <time>2019-10-12T13:56:47Z</time>
      </trkpt>
      <trkpt lat="44.95482" lon="4.20932">
        <ele>1423</ele>
        <time>2019-10-12T13:57:03Z</time>
      </trkpt>
      <trkpt lat="44.95489" lon="4.20929">
        <ele>1420</ele>
        <time>2019-10-12T13:57:23Z</time>
      </trkpt>
      <trkpt lat="44.95503" lon="4.20921">
        <ele>1416</ele>
        <time>2019-10-12T13:57:49Z</time>
      </trkpt>
      <trkpt lat="44.9551" lon="4.20917">
        <ele>1414</ele>
        <time>2019-10-12T13:58:02Z</time>
      </trkpt>
      <trkpt lat="44.95517" lon="4.20918">
        <ele>1413</ele>
        <time>2019-10-12T13:58:08Z</time>
      </trkpt>
      <trkpt lat="44.95531" lon="4.20917">
        <ele>1407</ele>
        <time>2019-10-12T13:58:44Z</time>
      </trkpt>
      <trkpt lat="44.95543" lon="4.20912">
        <ele>1405</ele>
        <time>2019-10-12T13:58:54Z</time>
      </trkpt>
      <trkpt lat="44.95545" lon="4.20904">
        <ele>1402</ele>
        <time>2019-10-12T13:59:11Z</time>
      </trkpt>
      <trkpt lat="44.95549" lon="4.20902">
        <ele>1399</ele>
        <time>2019-10-12T13:59:28Z</time>
      </trkpt>
      <trkpt lat="44.95548" lon="4.20897">
        <ele>1391</ele>
        <time>2019-10-12T14:00:46Z</time>
      </trkpt>
      <trkpt lat="44.95551" lon="4.20898">
        <ele>1384</ele>
        <time>2019-10-12T14:03:01Z</time>
      </trkpt>
      <trkpt lat="44.95548" lon="4.20892">
        <ele>1383</ele>
        <time>2019-10-12T14:04:38Z</time>
      </trkpt>
      <trkpt lat="44.95543" lon="4.20888">
        <ele>1383</ele>
        <time>2019-10-12T14:04:45Z</time>
      </trkpt>
      <trkpt lat="44.95538" lon="4.20884">
        <ele>1383</ele>
        <time>2019-10-12T14:04:52Z</time>
      </trkpt>
      <trkpt lat="44.95535" lon="4.20878">
        <ele>1382</ele>
        <time>2019-10-12T14:04:59Z</time>
      </trkpt>
      <trkpt lat="44.95516" lon="4.20848">
        <ele>1381</ele>
        <time>2019-10-12T14:05:33Z</time>
      </trkpt>
      <trkpt lat="44.95512" lon="4.20839">
        <ele>1381</ele>
        <time>2019-10-12T14:05:40Z</time>
      </trkpt>
      <trkpt lat="44.95502" lon="4.20815">
        <ele>1380</ele>
        <time>2019-10-12T14:05:58Z</time>
      </trkpt>
      <trkpt lat="44.955" lon="4.20807">
        <ele>1380</ele>
        <time>2019-10-12T14:06:05Z</time>
      </trkpt>
      <trkpt lat="44.95484" lon="4.20784">
        <ele>1378</ele>
        <time>2019-10-12T14:06:35Z</time>
      </trkpt>
      <trkpt lat="44.95481" lon="4.20774">
        <ele>1377</ele>
        <time>2019-10-12T14:06:45Z</time>
      </trkpt>
      <trkpt lat="44.95473" lon="4.20755">
        <ele>1376</ele>
        <time>2019-10-12T14:07:00Z</time>
      </trkpt>
      <trkpt lat="44.95462" lon="4.20739">
        <ele>1375</ele>
        <time>2019-10-12T14:07:13Z</time>
      </trkpt>
      <trkpt lat="44.95457" lon="4.20731">
        <ele>1374</ele>
        <time>2019-10-12T14:07:20Z</time>
      </trkpt>
      <trkpt lat="44.95451" lon="4.20723">
        <ele>1373</ele>
        <time>2019-10-12T14:07:28Z</time>
      </trkpt>
      <trkpt lat="44.95446" lon="4.20715">
        <ele>1372</ele>
        <time>2019-10-12T14:07:36Z</time>
      </trkpt>
      <trkpt lat="44.95435" lon="4.20699">
        <ele>1371</ele>
        <time>2019-10-12T14:07:51Z</time>
      </trkpt>
      <trkpt lat="44.95429" lon="4.20692">
        <ele>1370</ele>
        <time>2019-10-12T14:07:57Z</time>
      </trkpt>
      <trkpt lat="44.95423" lon="4.20685">
        <ele>1369</ele>
        <time>2019-10-12T14:08:05Z</time>
      </trkpt>
      <trkpt lat="44.95411" lon="4.20674">
        <ele>1368</ele>
        <time>2019-10-12T14:08:18Z</time>
      </trkpt>
      <trkpt lat="44.9539" lon="4.20658">
        <ele>1365</ele>
        <time>2019-10-12T14:08:41Z</time>
      </trkpt>
      <trkpt lat="44.95384" lon="4.20651">
        <ele>1365</ele>
        <time>2019-10-12T14:08:47Z</time>
      </trkpt>
      <trkpt lat="44.9537" lon="4.20634">
        <ele>1364</ele>
        <time>2019-10-12T14:09:01Z</time>
      </trkpt>
      <trkpt lat="44.95365" lon="4.20628">
        <ele>1363</ele>
        <time>2019-10-12T14:09:06Z</time>
      </trkpt>
      <trkpt lat="44.95361" lon="4.20622">
        <ele>1363</ele>
        <time>2019-10-12T14:09:11Z</time>
      </trkpt>
      <trkpt lat="44.95356" lon="4.20617">
        <ele>1362</ele>
        <time>2019-10-12T14:09:16Z</time>
      </trkpt>
      <trkpt lat="44.95351" lon="4.20611">
        <ele>1362</ele>
        <time>2019-10-12T14:09:21Z</time>
      </trkpt>
      <trkpt lat="44.95346" lon="4.20607">
        <ele>1362</ele>
        <time>2019-10-12T14:09:26Z</time>
      </trkpt>
      <trkpt lat="44.95341" lon="4.20602">
        <ele>1361</ele>
        <time>2019-10-12T14:09:30Z</time>
      </trkpt>
      <trkpt lat="44.95336" lon="4.206">
        <ele>1361</ele>
        <time>2019-10-12T14:09:35Z</time>
      </trkpt>
      <trkpt lat="44.95324" lon="4.20594">
        <ele>1360</ele>
        <time>2019-10-12T14:09:47Z</time>
      </trkpt>
      <trkpt lat="44.95318" lon="4.2059">
        <ele>1360</ele>
        <time>2019-10-12T14:09:52Z</time>
      </trkpt>
      <trkpt lat="44.95291" lon="4.20558">
        <ele>1358</ele>
        <time>2019-10-12T14:10:22Z</time>
      </trkpt>
      <trkpt lat="44.95285" lon="4.20554">
        <ele>1357</ele>
        <time>2019-10-12T14:10:28Z</time>
      </trkpt>
      <trkpt lat="44.95272" lon="4.20543">
        <ele>1356</ele>
        <time>2019-10-12T14:10:45Z</time>
      </trkpt>
      <trkpt lat="44.95266" lon="4.20535">
        <ele>1356</ele>
        <time>2019-10-12T14:10:51Z</time>
      </trkpt>
      <trkpt lat="44.95263" lon="4.20531">
        <ele>1355</ele>
        <time>2019-10-12T14:10:55Z</time>
      </trkpt>
      <trkpt lat="44.95237" lon="4.20497">
        <ele>1353</ele>
        <time>2019-10-12T14:11:28Z</time>
      </trkpt>
      <trkpt lat="44.95232" lon="4.2049">
        <ele>1352</ele>
        <time>2019-10-12T14:11:34Z</time>
      </trkpt>
      <trkpt lat="44.95201" lon="4.20463">
        <ele>1350</ele>
        <time>2019-10-12T14:12:08Z</time>
      </trkpt>
      <trkpt lat="44.95174" lon="4.20437">
        <ele>1347</ele>
        <time>2019-10-12T14:12:39Z</time>
      </trkpt>
      <trkpt lat="44.95168" lon="4.20426">
        <ele>1347</ele>
        <time>2019-10-12T14:12:49Z</time>
      </trkpt>
      <trkpt lat="44.95164" lon="4.20411">
        <ele>1346</ele>
        <time>2019-10-12T14:12:59Z</time>
      </trkpt>
      <trkpt lat="44.95159" lon="4.20379">
        <ele>1344</ele>
        <time>2019-10-12T14:13:21Z</time>
      </trkpt>
      <trkpt lat="44.95154" lon="4.20348">
        <ele>1340</ele>
        <time>2019-10-12T14:13:53Z</time>
      </trkpt>
      <trkpt lat="44.9515" lon="4.20321">
        <ele>1337</ele>
        <time>2019-10-12T14:14:24Z</time>
      </trkpt>
      <trkpt lat="44.95146" lon="4.20304">
        <ele>1336</ele>
        <time>2019-10-12T14:14:36Z</time>
      </trkpt>
      <trkpt lat="44.95142" lon="4.20292">
        <ele>1335</ele>
        <time>2019-10-12T14:14:44Z</time>
      </trkpt>
      <trkpt lat="44.95139" lon="4.20288">
        <ele>1335</ele>
        <time>2019-10-12T14:14:48Z</time>
      </trkpt>
      <trkpt lat="44.95135" lon="4.20286">
        <ele>1334</ele>
        <time>2019-10-12T14:14:52Z</time>
      </trkpt>
      <trkpt lat="44.95123" lon="4.2029">
        <ele>1333</ele>
        <time>2019-10-12T14:15:01Z</time>
      </trkpt>
      <trkpt lat="44.95117" lon="4.20295">
        <ele>1333</ele>
        <time>2019-10-12T14:15:07Z</time>
      </trkpt>
      <trkpt lat="44.95112" lon="4.203">
        <ele>1332</ele>
        <time>2019-10-12T14:15:12Z</time>
      </trkpt>
      <trkpt lat="44.95108" lon="4.20301">
        <ele>1331</ele>
        <time>2019-10-12T14:15:20Z</time>
      </trkpt>
      <trkpt lat="44.95105" lon="4.20312">
        <ele>1328</ele>
        <time>2019-10-12T14:15:44Z</time>
      </trkpt>
      <trkpt lat="44.95104" lon="4.20317">
        <ele>1328</ele>
        <time>2019-10-12T14:15:48Z</time>
      </trkpt>
      <trkpt lat="44.95088" lon="4.20358">
        <ele>1325</ele>
        <time>2019-10-12T14:16:15Z</time>
      </trkpt>
      <trkpt lat="44.95064" lon="4.20404">
        <ele>1321</ele>
        <time>2019-10-12T14:16:45Z</time>
      </trkpt>
      <trkpt lat="44.95041" lon="4.20439">
        <ele>1318</ele>
        <time>2019-10-12T14:17:19Z</time>
      </trkpt>
      <trkpt lat="44.95028" lon="4.20458">
        <ele>1316</ele>
        <time>2019-10-12T14:17:35Z</time>
      </trkpt>
      <trkpt lat="44.95017" lon="4.20466">
        <ele>1315</ele>
        <time>2019-10-12T14:17:48Z</time>
      </trkpt>
      <trkpt lat="44.95011" lon="4.20467">
        <ele>1314</ele>
        <time>2019-10-12T14:17:54Z</time>
      </trkpt>
      <trkpt lat="44.95" lon="4.20464">
        <ele>1313</ele>
        <time>2019-10-12T14:18:03Z</time>
      </trkpt>
      <trkpt lat="44.94995" lon="4.2046">
        <ele>1312</ele>
        <time>2019-10-12T14:18:09Z</time>
      </trkpt>
      <trkpt lat="44.9499" lon="4.20457">
        <ele>1312</ele>
        <time>2019-10-12T14:18:14Z</time>
      </trkpt>
      <trkpt lat="44.94982" lon="4.20445">
        <ele>1311</ele>
        <time>2019-10-12T14:18:24Z</time>
      </trkpt>
      <trkpt lat="44.94975" lon="4.20433">
        <ele>1309</ele>
        <time>2019-10-12T14:18:34Z</time>
      </trkpt>
      <trkpt lat="44.94968" lon="4.20421">
        <ele>1308</ele>
        <time>2019-10-12T14:18:44Z</time>
      </trkpt>
      <trkpt lat="44.94965" lon="4.20408">
        <ele>1306</ele>
        <time>2019-10-12T14:19:01Z</time>
      </trkpt>
      <trkpt lat="44.94965" lon="4.20409">
        <ele>1292</ele>
        <time>2019-10-12T14:23:00Z</time>
      </trkpt>
      <trkpt lat="44.94966" lon="4.2041">
        <ele>1292</ele>
        <time>2019-10-12T14:23:25Z</time>
      </trkpt>
      <trkpt lat="44.94966" lon="4.20404">
        <ele>1292</ele>
        <time>2019-10-12T14:23:29Z</time>
      </trkpt>
      <trkpt lat="44.94967" lon="4.20399">
        <ele>1291</ele>
        <time>2019-10-12T14:23:48Z</time>
      </trkpt>
      <trkpt lat="44.94966" lon="4.20396">
        <ele>1291</ele>
        <time>2019-10-12T14:24:09Z</time>
      </trkpt>
      <trkpt lat="44.94964" lon="4.20397">
        <ele>1290</ele>
        <time>2019-10-12T14:24:57Z</time>
      </trkpt>
      <trkpt lat="44.9496" lon="4.20394">
        <ele>1290</ele>
        <time>2019-10-12T14:25:09Z</time>
      </trkpt>
      <trkpt lat="44.94956" lon="4.20394">
        <ele>1290</ele>
        <time>2019-10-12T14:25:15Z</time>
      </trkpt>
      <trkpt lat="44.94932" lon="4.2041">
        <ele>1290</ele>
        <time>2019-10-12T14:25:38Z</time>
      </trkpt>
      <trkpt lat="44.94917" lon="4.20419">
        <ele>1290</ele>
        <time>2019-10-12T14:25:52Z</time>
      </trkpt>
      <trkpt lat="44.94909" lon="4.20431">
        <ele>1289</ele>
        <time>2019-10-12T14:26:04Z</time>
      </trkpt>
      <trkpt lat="44.94906" lon="4.20435">
        <ele>1289</ele>
        <time>2019-10-12T14:26:10Z</time>
      </trkpt>
      <trkpt lat="44.94888" lon="4.20433">
        <ele>1289</ele>
        <time>2019-10-12T14:26:27Z</time>
      </trkpt>
      <trkpt lat="44.94883" lon="4.20429">
        <ele>1289</ele>
        <time>2019-10-12T14:26:36Z</time>
      </trkpt>
      <trkpt lat="44.9487" lon="4.20431">
        <ele>1288</ele>
        <time>2019-10-12T14:26:49Z</time>
      </trkpt>
      <trkpt lat="44.94859" lon="4.20438">
        <ele>1288</ele>
        <time>2019-10-12T14:27:00Z</time>
      </trkpt>
      <trkpt lat="44.94854" lon="4.20434">
        <ele>1287</ele>
        <time>2019-10-12T14:27:09Z</time>
      </trkpt>
      <trkpt lat="44.94852" lon="4.20426">
        <ele>1287</ele>
        <time>2019-10-12T14:27:14Z</time>
      </trkpt>
      <trkpt lat="44.94851" lon="4.20409">
        <ele>1286</ele>
        <time>2019-10-12T14:27:23Z</time>
      </trkpt>
      <trkpt lat="44.9485" lon="4.20401">
        <ele>1286</ele>
        <time>2019-10-12T14:27:28Z</time>
      </trkpt>
      <trkpt lat="44.94828" lon="4.20374">
        <ele>1284</ele>
        <time>2019-10-12T14:27:56Z</time>
      </trkpt>
      <trkpt lat="44.94816" lon="4.20368">
        <ele>1283</ele>
        <time>2019-10-12T14:28:06Z</time>
      </trkpt>
      <trkpt lat="44.94794" lon="4.20354">
        <ele>1281</ele>
        <time>2019-10-12T14:28:29Z</time>
      </trkpt>
      <trkpt lat="44.94778" lon="4.20342">
        <ele>1280</ele>
        <time>2019-10-12T14:28:42Z</time>
      </trkpt>
      <trkpt lat="44.94761" lon="4.20332">
        <ele>1279</ele>
        <time>2019-10-12T14:28:56Z</time>
      </trkpt>
      <trkpt lat="44.94737" lon="4.20316">
        <ele>1278</ele>
        <time>2019-10-12T14:29:17Z</time>
      </trkpt>
      <trkpt lat="44.94726" lon="4.20312">
        <ele>1278</ele>
        <time>2019-10-12T14:29:27Z</time>
      </trkpt>
      <trkpt lat="44.94693" lon="4.20289">
        <ele>1276</ele>
        <time>2019-10-12T14:29:54Z</time>
      </trkpt>
      <trkpt lat="44.94683" lon="4.20287">
        <ele>1275</ele>
        <time>2019-10-12T14:30:02Z</time>
      </trkpt>
      <trkpt lat="44.94673" lon="4.20288">
        <ele>1275</ele>
        <time>2019-10-12T14:30:13Z</time>
      </trkpt>
      <trkpt lat="44.94644" lon="4.20303">
        <ele>1273</ele>
        <time>2019-10-12T14:30:38Z</time>
      </trkpt>
      <trkpt lat="44.94613" lon="4.20309">
        <ele>1272</ele>
        <time>2019-10-12T14:31:02Z</time>
      </trkpt>
      <trkpt lat="44.94605" lon="4.20311">
        <ele>1272</ele>
        <time>2019-10-12T14:31:10Z</time>
      </trkpt>
      <trkpt lat="44.94601" lon="4.20315">
        <ele>1272</ele>
        <time>2019-10-12T14:31:15Z</time>
      </trkpt>
      <trkpt lat="44.94597" lon="4.20317">
        <ele>1272</ele>
        <time>2019-10-12T14:31:19Z</time>
      </trkpt>
      <trkpt lat="44.94588" lon="4.20317">
        <ele>1271</ele>
        <time>2019-10-12T14:31:27Z</time>
      </trkpt>
      <trkpt lat="44.9456" lon="4.2033">
        <ele>1271</ele>
        <time>2019-10-12T14:31:51Z</time>
      </trkpt>
      <trkpt lat="44.94528" lon="4.20324">
        <ele>1270</ele>
        <time>2019-10-12T14:32:18Z</time>
      </trkpt>
      <trkpt lat="44.94488" lon="4.20301">
        <ele>1270</ele>
        <time>2019-10-12T14:32:51Z</time>
      </trkpt>
      <trkpt lat="44.94476" lon="4.20293">
        <ele>1269</ele>
        <time>2019-10-12T14:33:01Z</time>
      </trkpt>
      <trkpt lat="44.94443" lon="4.20263">
        <ele>1268</ele>
        <time>2019-10-12T14:33:32Z</time>
      </trkpt>
      <trkpt lat="44.94408" lon="4.20224">
        <ele>1267</ele>
        <time>2019-10-12T14:34:05Z</time>
      </trkpt>
      <trkpt lat="44.9437" lon="4.20185">
        <ele>1266</ele>
        <time>2019-10-12T14:34:37Z</time>
      </trkpt>
      <trkpt lat="44.94348" lon="4.20167">
        <ele>1265</ele>
        <time>2019-10-12T14:34:56Z</time>
      </trkpt>
      <trkpt lat="44.9431" lon="4.20147">
        <ele>1264</ele>
        <time>2019-10-12T14:35:26Z</time>
      </trkpt>
      <trkpt lat="44.94271" lon="4.2012">
        <ele>1262</ele>
        <time>2019-10-12T14:35:58Z</time>
      </trkpt>
      <trkpt lat="44.94236" lon="4.20088">
        <ele>1261</ele>
        <time>2019-10-12T14:36:29Z</time>
      </trkpt>
      <trkpt lat="44.94207" lon="4.2007">
        <ele>1260</ele>
        <time>2019-10-12T14:36:52Z</time>
      </trkpt>
      <trkpt lat="44.94175" lon="4.20058">
        <ele>1259</ele>
        <time>2019-10-12T14:37:16Z</time>
      </trkpt>
      <trkpt lat="44.94172" lon="4.20055">
        <ele>1259</ele>
        <time>2019-10-12T14:37:20Z</time>
      </trkpt>
      <trkpt lat="44.94169" lon="4.20051">
        <ele>1259</ele>
        <time>2019-10-12T14:37:23Z</time>
      </trkpt>
      <trkpt lat="44.94161" lon="4.20036">
        <ele>1259</ele>
        <time>2019-10-12T14:37:34Z</time>
      </trkpt>
      <trkpt lat="44.94157" lon="4.20032">
        <ele>1258</ele>
        <time>2019-10-12T14:37:38Z</time>
      </trkpt>
      <trkpt lat="44.94122" lon="4.20037">
        <ele>1258</ele>
        <time>2019-10-12T14:38:10Z</time>
      </trkpt>
      <trkpt lat="44.94115" lon="4.20039">
        <ele>1256</ele>
        <time>2019-10-12T14:45:07Z</time>
      </trkpt>
      <trkpt lat="44.94109" lon="4.20035">
        <ele>1256</ele>
        <time>2019-10-12T14:46:09Z</time>
      </trkpt>
      <trkpt lat="44.94104" lon="4.20043">
        <ele>1256</ele>
        <time>2019-10-12T14:46:13Z</time>
      </trkpt>
      <trkpt lat="44.94098" lon="4.2005">
        <ele>1257</ele>
        <time>2019-10-12T14:46:18Z</time>
      </trkpt>
      <trkpt lat="44.94075" lon="4.20055">
        <ele>1257</ele>
        <time>2019-10-12T14:46:43Z</time>
      </trkpt>
      <trkpt lat="44.94049" lon="4.20081">
        <ele>1258</ele>
        <time>2019-10-12T14:47:10Z</time>
      </trkpt>
      <trkpt lat="44.9403" lon="4.20096">
        <ele>1259</ele>
        <time>2019-10-12T14:47:30Z</time>
      </trkpt>
      <trkpt lat="44.94026" lon="4.20101">
        <ele>1259</ele>
        <time>2019-10-12T14:47:41Z</time>
      </trkpt>
      <trkpt lat="44.9402" lon="4.20104">
        <ele>1261</ele>
        <time>2019-10-12T14:48:00Z</time>
      </trkpt>
      <trkpt lat="44.94012" lon="4.20103">
        <ele>1261</ele>
        <time>2019-10-12T14:48:22Z</time>
      </trkpt>
      <trkpt lat="44.93989" lon="4.20105">
        <ele>1262</ele>
        <time>2019-10-12T14:48:40Z</time>
      </trkpt>
      <trkpt lat="44.93982" lon="4.2011">
        <ele>1263</ele>
        <time>2019-10-12T14:48:51Z</time>
      </trkpt>
      <trkpt lat="44.93979" lon="4.2012">
        <ele>1263</ele>
        <time>2019-10-12T14:49:01Z</time>
      </trkpt>
      <trkpt lat="44.93978" lon="4.20129">
        <ele>1264</ele>
        <time>2019-10-12T14:49:13Z</time>
      </trkpt>
      <trkpt lat="44.93972" lon="4.20133">
        <ele>1264</ele>
        <time>2019-10-12T14:49:20Z</time>
      </trkpt>
      <trkpt lat="44.93966" lon="4.20136">
        <ele>1264</ele>
        <time>2019-10-12T14:49:26Z</time>
      </trkpt>
      <trkpt lat="44.93951" lon="4.2014">
        <ele>1265</ele>
        <time>2019-10-12T14:49:44Z</time>
      </trkpt>
      <trkpt lat="44.93943" lon="4.20142">
        <ele>1265</ele>
        <time>2019-10-12T14:49:52Z</time>
      </trkpt>
      <trkpt lat="44.93936" lon="4.20146">
        <ele>1265</ele>
        <time>2019-10-12T14:50:01Z</time>
      </trkpt>
      <trkpt lat="44.93931" lon="4.20154">
        <ele>1266</ele>
        <time>2019-10-12T14:50:09Z</time>
      </trkpt>
      <trkpt lat="44.93923" lon="4.20171">
        <ele>1267</ele>
        <time>2019-10-12T14:50:21Z</time>
      </trkpt>
      <trkpt lat="44.93911" lon="4.20177">
        <ele>1268</ele>
        <time>2019-10-12T14:50:47Z</time>
      </trkpt>
      <trkpt lat="44.93905" lon="4.20176">
        <ele>1268</ele>
        <time>2019-10-12T14:50:53Z</time>
      </trkpt>
      <trkpt lat="44.93903" lon="4.20168">
        <ele>1268</ele>
        <time>2019-10-12T14:51:02Z</time>
      </trkpt>
      <trkpt lat="44.93897" lon="4.20162">
        <ele>1269</ele>
        <time>2019-10-12T14:51:13Z</time>
      </trkpt>
      <trkpt lat="44.93891" lon="4.20149">
        <ele>1270</ele>
        <time>2019-10-12T14:51:28Z</time>
      </trkpt>
      <trkpt lat="44.93888" lon="4.20141">
        <ele>1271</ele>
        <time>2019-10-12T14:51:36Z</time>
      </trkpt>
      <trkpt lat="44.93881" lon="4.20138">
        <ele>1271</ele>
        <time>2019-10-12T14:51:48Z</time>
      </trkpt>
      <trkpt lat="44.93874" lon="4.20136">
        <ele>1272</ele>
        <time>2019-10-12T14:51:55Z</time>
      </trkpt>
      <trkpt lat="44.93867" lon="4.2013">
        <ele>1273</ele>
        <time>2019-10-12T14:52:03Z</time>
      </trkpt>
      <trkpt lat="44.93847" lon="4.20122">
        <ele>1275</ele>
        <time>2019-10-12T14:52:25Z</time>
      </trkpt>
      <trkpt lat="44.9384" lon="4.20119">
        <ele>1276</ele>
        <time>2019-10-12T14:52:34Z</time>
      </trkpt>
      <trkpt lat="44.93834" lon="4.20115">
        <ele>1277</ele>
        <time>2019-10-12T14:52:49Z</time>
      </trkpt>
      <trkpt lat="44.93827" lon="4.20111">
        <ele>1278</ele>
        <time>2019-10-12T14:53:01Z</time>
      </trkpt>
      <trkpt lat="44.93821" lon="4.20104">
        <ele>1279</ele>
        <time>2019-10-12T14:53:09Z</time>
      </trkpt>
      <trkpt lat="44.93813" lon="4.20098">
        <ele>1279</ele>
        <time>2019-10-12T14:53:18Z</time>
      </trkpt>
      <trkpt lat="44.93795" lon="4.20094">
        <ele>1290</ele>
        <time>2019-10-12T14:58:45Z</time>
      </trkpt>
      <trkpt lat="44.93784" lon="4.20092">
        <ele>1292</ele>
        <time>2019-10-12T15:02:26Z</time>
      </trkpt>
      <trkpt lat="44.93778" lon="4.20082">
        <ele>1288</ele>
        <time>2019-10-12T15:11:21Z</time>
      </trkpt>
      <trkpt lat="44.93775" lon="4.20075">
        <ele>1290</ele>
        <time>2019-10-12T15:11:53Z</time>
      </trkpt>
      <trkpt lat="44.93773" lon="4.20072">
        <ele>1291</ele>
        <time>2019-10-12T15:12:03Z</time>
      </trkpt>
      <trkpt lat="44.9377" lon="4.20072">
        <ele>1292</ele>
        <time>2019-10-12T15:12:13Z</time>
      </trkpt>
      <trkpt lat="44.93771" lon="4.20066">
        <ele>1293</ele>
        <time>2019-10-12T15:12:31Z</time>
      </trkpt>
      <trkpt lat="44.93769" lon="4.2006">
        <ele>1294</ele>
        <time>2019-10-12T15:12:38Z</time>
      </trkpt>
      <trkpt lat="44.93772" lon="4.20053">
        <ele>1295</ele>
        <time>2019-10-12T15:12:50Z</time>
      </trkpt>
      <trkpt lat="44.93772" lon="4.20048">
        <ele>1297</ele>
        <time>2019-10-12T15:13:10Z</time>
      </trkpt>
      <trkpt lat="44.93782" lon="4.20041">
        <ele>1300</ele>
        <time>2019-10-12T15:13:41Z</time>
      </trkpt>
      <trkpt lat="44.93788" lon="4.20039">
        <ele>1301</ele>
        <time>2019-10-12T15:13:48Z</time>
      </trkpt>
      <trkpt lat="44.93792" lon="4.20034">
        <ele>1302</ele>
        <time>2019-10-12T15:13:58Z</time>
      </trkpt>
      <trkpt lat="44.93798" lon="4.20035">
        <ele>1303</ele>
        <time>2019-10-12T15:14:07Z</time>
      </trkpt>
      <trkpt lat="44.93809" lon="4.20035">
        <ele>1305</ele>
        <time>2019-10-12T15:14:21Z</time>
      </trkpt>
      <trkpt lat="44.93814" lon="4.20034">
        <ele>1306</ele>
        <time>2019-10-12T15:14:29Z</time>
      </trkpt>
      <trkpt lat="44.93814" lon="4.2003">
        <ele>1309</ele>
        <time>2019-10-12T15:14:49Z</time>
      </trkpt>
      <trkpt lat="44.93811" lon="4.20028">
        <ele>1309</ele>
        <time>2019-10-12T15:14:55Z</time>
      </trkpt>
      <trkpt lat="44.93808" lon="4.20024">
        <ele>1310</ele>
        <time>2019-10-12T15:15:02Z</time>
      </trkpt>
      <trkpt lat="44.93805" lon="4.20022">
        <ele>1311</ele>
        <time>2019-10-12T15:15:08Z</time>
      </trkpt>
      <trkpt lat="44.93796" lon="4.20014">
        <ele>1312</ele>
        <time>2019-10-12T15:15:21Z</time>
      </trkpt>
      <trkpt lat="44.93788" lon="4.20013">
        <ele>1313</ele>
        <time>2019-10-12T15:15:31Z</time>
      </trkpt>
      <trkpt lat="44.93786" lon="4.20013">
        <ele>1314</ele>
        <time>2019-10-12T15:15:37Z</time>
      </trkpt>
      <trkpt lat="44.93783" lon="4.20015">
        <ele>1315</ele>
        <time>2019-10-12T15:15:42Z</time>
      </trkpt>
      <trkpt lat="44.9378" lon="4.20019">
        <ele>1315</ele>
        <time>2019-10-12T15:15:48Z</time>
      </trkpt>
      <trkpt lat="44.93777" lon="4.20023">
        <ele>1316</ele>
        <time>2019-10-12T15:15:53Z</time>
      </trkpt>
      <trkpt lat="44.93775" lon="4.20028">
        <ele>1317</ele>
        <time>2019-10-12T15:16:02Z</time>
      </trkpt>
      <trkpt lat="44.93772" lon="4.20031">
        <ele>1318</ele>
        <time>2019-10-12T15:16:07Z</time>
      </trkpt>
      <trkpt lat="44.93766" lon="4.20038">
        <ele>1318</ele>
        <time>2019-10-12T15:16:15Z</time>
      </trkpt>
      <trkpt lat="44.9376" lon="4.20046">
        <ele>1319</ele>
        <time>2019-10-12T15:16:23Z</time>
      </trkpt>
      <trkpt lat="44.93758" lon="4.20048">
        <ele>1320</ele>
        <time>2019-10-12T15:16:28Z</time>
      </trkpt>
      <trkpt lat="44.93755" lon="4.2005">
        <ele>1323</ele>
        <time>2019-10-12T15:17:00Z</time>
      </trkpt>
      <trkpt lat="44.93751" lon="4.20051">
        <ele>1326</ele>
        <time>2019-10-12T15:17:51Z</time>
      </trkpt>
      <trkpt lat="44.9374" lon="4.20057">
        <ele>1326</ele>
        <time>2019-10-12T15:18:02Z</time>
      </trkpt>
      <trkpt lat="44.93733" lon="4.20066">
        <ele>1327</ele>
        <time>2019-10-12T15:18:10Z</time>
      </trkpt>
      <trkpt lat="44.93726" lon="4.20073">
        <ele>1327</ele>
        <time>2019-10-12T15:18:18Z</time>
      </trkpt>
      <trkpt lat="44.93723" lon="4.20076">
        <ele>1327</ele>
        <time>2019-10-12T15:18:23Z</time>
      </trkpt>
      <trkpt lat="44.93722" lon="4.2008">
        <ele>1328</ele>
        <time>2019-10-12T15:18:28Z</time>
      </trkpt>
      <trkpt lat="44.93722" lon="4.20084">
        <ele>1328</ele>
        <time>2019-10-12T15:18:34Z</time>
      </trkpt>
      <trkpt lat="44.93722" lon="4.20089">
        <ele>1328</ele>
        <time>2019-10-12T15:18:46Z</time>
      </trkpt>
      <trkpt lat="44.9372" lon="4.20092">
        <ele>1328</ele>
        <time>2019-10-12T15:18:54Z</time>
      </trkpt>
      <trkpt lat="44.93723" lon="4.20097">
        <ele>1329</ele>
        <time>2019-10-12T15:19:07Z</time>
      </trkpt>
      <trkpt lat="44.93726" lon="4.20098">
        <ele>1329</ele>
        <time>2019-10-12T15:19:11Z</time>
      </trkpt>
      <trkpt lat="44.93729" lon="4.20102">
        <ele>1329</ele>
        <time>2019-10-12T15:19:23Z</time>
      </trkpt>
      <trkpt lat="44.93742" lon="4.20118">
        <ele>1330</ele>
        <time>2019-10-12T15:19:41Z</time>
      </trkpt>
      <trkpt lat="44.93742" lon="4.20123">
        <ele>1330</ele>
        <time>2019-10-12T15:19:45Z</time>
      </trkpt>
      <trkpt lat="44.93746" lon="4.2014">
        <ele>1330</ele>
        <time>2019-10-12T15:19:56Z</time>
      </trkpt>
      <trkpt lat="44.93749" lon="4.20147">
        <ele>1330</ele>
        <time>2019-10-12T15:20:01Z</time>
      </trkpt>
      <trkpt lat="44.93755" lon="4.2017">
        <ele>1331</ele>
        <time>2019-10-12T15:20:15Z</time>
      </trkpt>
      <trkpt lat="44.93756" lon="4.20175">
        <ele>1331</ele>
        <time>2019-10-12T15:20:19Z</time>
      </trkpt>
      <trkpt lat="44.93777" lon="4.20211">
        <ele>1332</ele>
        <time>2019-10-12T15:20:52Z</time>
      </trkpt>
      <trkpt lat="44.938" lon="4.20254">
        <ele>1332</ele>
        <time>2019-10-12T15:21:25Z</time>
      </trkpt>
      <trkpt lat="44.93806" lon="4.20264">
        <ele>1331</ele>
        <time>2019-10-12T15:21:33Z</time>
      </trkpt>
      <trkpt lat="44.93816" lon="4.20276">
        <ele>1331</ele>
        <time>2019-10-12T15:21:47Z</time>
      </trkpt>
      <trkpt lat="44.9383" lon="4.20285">
        <ele>1330</ele>
        <time>2019-10-12T15:22:01Z</time>
      </trkpt>
      <trkpt lat="44.93839" lon="4.20287">
        <ele>1330</ele>
        <time>2019-10-12T15:22:11Z</time>
      </trkpt>
      <trkpt lat="44.93867" lon="4.20309">
        <ele>1328</ele>
        <time>2019-10-12T15:22:41Z</time>
      </trkpt>
      <trkpt lat="44.93884" lon="4.20358">
        <ele>1326</ele>
        <time>2019-10-12T15:23:13Z</time>
      </trkpt>
      <trkpt lat="44.93893" lon="4.20378">
        <ele>1325</ele>
        <time>2019-10-12T15:23:28Z</time>
      </trkpt>
      <trkpt lat="44.93899" lon="4.20387">
        <ele>1325</ele>
        <time>2019-10-12T15:23:36Z</time>
      </trkpt>
      <trkpt lat="44.93904" lon="4.20397">
        <ele>1324</ele>
        <time>2019-10-12T15:23:45Z</time>
      </trkpt>
      <trkpt lat="44.93907" lon="4.20398">
        <ele>1324</ele>
        <time>2019-10-12T15:23:49Z</time>
      </trkpt>
      <trkpt lat="44.93909" lon="4.20403">
        <ele>1323</ele>
        <time>2019-10-12T15:24:13Z</time>
      </trkpt>
      <trkpt lat="44.9391" lon="4.20406">
        <ele>1323</ele>
        <time>2019-10-12T15:24:18Z</time>
      </trkpt>
      <trkpt lat="44.93912" lon="4.2041">
        <ele>1323</ele>
        <time>2019-10-12T15:24:23Z</time>
      </trkpt>
    </trkseg>
  </trk>
</gpx>